Regional Weather Roundup
Issued by NWS

Home | Current Version | Previous Version | Graphics & Text | Print | Product List | Glossary On
Versions: 1 2 3 4 5 6 7 8 9 10 11 12 13 14 15 16 17 18 19 20 21 22 23 24 25 26 27 28 29 30 31 32 33 34 35 36 37 38 39 40 41 42 43 44 45 46 47 48 49 50
000
ASUS43 KOAX 181902
RWRNE

WEATHER ROUNDUP FOR NEBRASKA
NATIONAL WEATHER SERVICE OMAHA NE
200 PM CDT SAT APR 18 2015

NOTES: SATELLITE DATA IS BEING USED TO AUGMENT CLOUD COVER ABOVE
       12000 FEET.
       "FAIR" INDICATES FEW OR NO CLOUDS BELOW 12,000 FEET WITH NO
       SIGNIFICANT WEATHER AND/OR OBSTRUCTIONS TO VISIBILITY.

  * THESE STATIONS DO NOT REPORT WEATHER SUCH AS RAIN...SNOW OR FOG.

NEZ001>004-019>022-054>056-182000-
NEBRASKA PANHANDLE

CITY           SKY/WX    TMP DP  RH WIND       PRES   REMARKS
SCOTTSBLUFF    PTSUNNY   55  32  41 VRB3      29.90F
ALLIANCE       MOSUNNY   55  42  61 MISG      29.89F
CHADRON        CLOUDY    50  46  86 N6        29.92F
SIDNEY         PTSUNNY   52  42  69 VRB3      29.90F
$$

NEZ057>060-069>072-079>082-182000-
SOUTHWEST NEBRASKA

CITY           SKY/WX    TMP DP  RH WIND       PRES   REMARKS
NORTH PLATTE   SUNNY     65  48  54 S8        29.86F
IMPERIAL       MOSUNNY   62  46  55 SE12      29.85F
MCCOOK         SUNNY     67  47  48 SE7       29.84F
$$

NEZ005>010-023>029-035>040-094-182000-
NORTH CENTRAL NEBRASKA

CITY           SKY/WX    TMP DP  RH WIND       PRES   REMARKS
VALENTINE      CLOUDY    56  49  77 SW7       29.88F
AINSWORTH      CLOUDY    55  53  93 E5        29.88F
BROKEN BOW     MOSUNNY   67  51  56 CALM      29.84F
ORD            CLOUDY    63  53  70 S3        29.84F
$$

NEZ041-046>049-061>064-073>077-083>087-182000-
SOUTH CENTRAL NEBRASKA

CITY           SKY/WX    TMP DP  RH WIND       PRES   REMARKS
GRAND ISLAND   CLOUDY    65  55  70 SE8       29.86F
HASTINGS       PTSUNNY   65  56  72 VRB7      29.86S
KEARNEY *      MOSUNNY   66  54  63 E7        29.85F
YORK           CLOUDY    64  55  72 S8        29.87F
$$

NEZ011>018-030>034-042>045-182000-
NORTHEAST NEBRASKA

CITY           SKY/WX    TMP DP  RH WIND       PRES   REMARKS
BLAIR          CLOUDY    61  58  90 SE14      29.90R
COLUMBUS *     CLOUDY    64  55  72 SE8       29.89S
TEKAMAH        CLOUDY    63  59  87 E12       29.88F
$$

NEZ050>053-065>068-078-088>093-182000-
SOUTHEAST NEBRASKA

CITY           SKY/WX    TMP DP  RH WIND       PRES   REMARKS
LINCOLN        CLOUDY    65  59  81 SE12      29.89F
OMAHA EPPLEY   RAIN      62  59  90 SE13      29.90S FOG
FALLS CITY     LGT RAIN  63  59  87 CALM      29.89F
$$

NEZ044-045-051>053-067-182000-
OMAHA AREA

CITY           SKY/WX    TMP DP  RH WIND       PRES   REMARKS
OMAHA EPPLEY   RAIN      62  59  90 SE13      29.90S FOG
BLAIR          CLOUDY    61  58  90 SE14      29.90R
OFFUTT AFB     RAIN      61  59  94 E10       29.91R FOG
$$


USA.gov is the U.S. government's official web portal to all federal, state and local government web resources and services.